[[{"header":{"parameterUnit":"m.s-1","parameterCategory":1,"la1":30.2991,"la2":30.254,"lo1":-89.0895,"lo2":-89.0444,"dy":0.0017,"dx":0.0017,"nx":28,"ny":28,"refTime":"2023-08-22T21:00:00:Z","depth":0,"parameterNumber":2,"parameterNumberName":"U-component_of_WINDS"},"data":[0,0,0,0,0,0,0,0,0,0,0,0,0,0,0,0,0,0,0,0,0,0,0,0,0,0,0,0,0,0,0,0,0,0,0,0,0,0,0,0,0,0,0,0,0,0,0,0,0,0,0,0,0,0,0,0,0,0,3.0985,3.0987,0,3.1132,3.1134,3.1136,3.1129,3.1127,3.1125,3.1123,3.1275,3.1281,3.1287,0,0,0,0,0,0,0,0,0,0,0,0,0,3.07,3.0706,3.0985,3.0987,3.0989,3.1132,3.1134,3.1136,3.113,3.1127,3.1124,3.1122,3.1273,3.128,3.1288,0,0,0,0,0,0,0,0,0,0,0,0,0,3.0833,3.0707,3.0985,3.1003,3.1006,3.1132,3.1134,3.1137,3.113,3.1127,3.1124,3.1121,3.1271,3.128,3.1289,3.1407,0,0,3.1316,3.132,0,0,0,0,0,0,0,0,3.0826,3.0844,3.0998,3.1002,3.1005,3.1109,3.1089,3.1227,3.1131,3.1083,3.1123,3.1119,3.1223,3.1235,3.127,3.1414,3.142,3.1317,3.1322,3.1326,3.1329,0,0,0,0,0,0,0,3.0817,3.0838,3.1043,3.1001,3.1005,3.1004,3.102,3.1116,3.1169,3.1087,3.1087,3.1104,3.1224,3.1261,3.1273,3.1423,3.1317,3.1325,3.133,3.1334,3.167,3.1674,0,0,0,0,0,0,3.0803,3.083,3.1039,3.1048,3.0906,3.1012,3.1029,3.1079,3.1168,3.1178,3.1107,3.1103,3.1247,3.1263,3.1279,3.1422,3.1326,3.1335,3.134,3.1667,3.1671,3.1675,0,0,0,0,0,0,3.0797,3.0822,3.1033,3.0939,3.0966,3.102,3.1076,3.1084,3.1121,3.1182,3.1192,3.1135,3.1246,3.1266,3.1375,3.1427,3.1339,3.1347,3.1663,3.1668,3.1673,3.171,0,0,0,0,0,0,3.0789,3.082,3.0865,3.094,3.0971,3.1126,3.108,3.1089,3.1136,3.1133,3.1211,3.1221,3.1245,3.1361,3.1384,3.1438,3.1354,3.1658,3.1665,3.1672,3.1705,3.1716,3.1726,0,0,0,0,0,3.0779,3.087,3.0867,3.0892,3.1028,3.1129,3.1146,3.1171,3.114,3.1186,3.1226,3.1219,3.1418,3.1373,3.1398,3.1456,3.1655,3.1663,3.1671,3.17,3.1714,3.1726,0,0,0,0,0,0,3.08,3.088,3.0878,3.0996,3.1055,3.1127,3.1186,3.1185,3.1255,3.125,3.1278,3.1295,3.1404,3.1441,3.1389,3.1575,3.1533,3.1546,3.1546,3.156,3.1571,3.1559,3.1361,0,0,0,0,0,3.0818,3.0893,3.0959,3.1057,3.1087,3.1131,3.1176,3.119,3.1253,3.1279,3.1326,3.1388,3.1465,3.1515,3.1589,3.171,3.1727,3.1763,3.1774,3.1782,3.1793,3.186,3.1876,3.1701,3.1701,3.1701,0,0,3.0857,3.091,3.0956,3.1062,3.111,3.1187,3.1153,3.1236,3.1293,3.1291,3.1396,3.1434,3.1505,3.162,3.1674,3.1654,3.1845,3.1792,3.1799,3.1805,3.187,3.1886,3.1901,3.1707,3.1706,3.1705,0,0,3.0967,3.1014,3.1101,3.1149,3.1222,3.1251,3.1272,3.1344,3.1369,3.1474,3.1475,3.1544,3.1675,3.1726,3.1769,3.1898,3.1894,3.1922,3.1978,3.2043,3.2056,3.2069,3.2114,3.213,3.1933,3.1933,3.1933,0,3.1006,3.1121,3.1145,3.1229,3.1276,3.1277,3.1365,3.1411,3.1505,3.1537,3.1514,3.1679,3.1728,3.1855,3.1886,3.1921,3.1946,3.1912,3.2052,3.2065,3.2077,3.212,3.2138,3.1936,3.1935,3.1935,3.1935,0,3.1165,3.1245,3.1306,3.1396,3.145,3.1535,3.1572,3.1625,3.1634,3.1665,3.1773,3.1831,3.1917,3.1948,3.1958,3.2077,3.2063,3.2046,3.2004,3.2096,3.2137,3.2154,3.194,3.1939,3.1938,3.1937,0,0,3.1292,3.1393,3.1415,3.1455,3.1536,3.1599,3.1684,3.1767,3.1811,3.1876,3.1948,3.206,3.2044,3.2093,3.2109,3.2166,3.2264,3.2143,3.2145,3.2162,3.2398,3.2409,3.2428,3.2263,3.2266,3.2269,3.2392,0,3.1409,3.1559,3.1584,3.1716,3.179,3.1793,3.1868,3.1925,3.1958,3.2026,3.2062,3.214,3.2114,3.2144,3.22,3.224,3.2312,3.2232,3.233,3.2333,3.2311,3.245,3.2462,3.2576,3.2408,3.2411,3.2413,0,3.1565,3.1633,3.1773,3.1843,3.1875,3.1941,3.2019,3.2085,3.215,3.217,3.2224,3.2234,3.2323,3.2278,3.2402,3.2347,3.2389,3.2415,3.242,3.2429,3.2378,3.2462,3.2612,3.2629,3.2439,3.2437,3.2435,0,3.1642,3.1769,3.1869,3.1903,3.1988,3.2034,3.2072,3.2135,3.2183,3.2252,3.2283,3.2362,3.2404,3.2465,3.2496,3.2461,3.2617,3.2575,3.2636,3.2635,3.2668,3.2665,3.2826,3.2697,3.2696,3.2696,3.2696,0,3.177,3.1855,3.1904,3.1965,3.2061,3.2089,3.2183,3.2219,3.2275,3.2344,3.2352,3.2416,3.2453,3.2523,3.2548,3.2646,3.2666,3.2684,3.269,3.2683,3.2681,3.271,3.2703,3.2701,3.27,3.2699,3.2698,0,3.1872,3.1908,3.2017,3.2088,3.2108,3.2175,3.2236,3.2296,3.2328,3.2415,3.2437,3.2487,3.257,3.2607,3.271,3.2726,3.2838,3.2839,3.2816,3.2817,3.2875,3.2869,3.306,3.3086,3.294,3.2942,3.2943,0,3.1951,3.2016,3.2094,3.214,3.2178,3.2253,3.2302,3.2332,3.2383,3.2463,3.2513,3.2596,3.2664,3.2797,3.2843,3.2922,3.2923,3.2985,3.2935,3.2926,3.2923,3.2918,3.2925,3.2993,3.2995,3.2996,3.2997,0,3.2086,3.2101,3.2171,3.2247,3.2305,3.2367,3.2428,3.2465,3.2505,3.2562,3.2646,3.2699,3.2804,3.2886,3.2967,3.3007,3.3009,3.3012,3.303,3.3024,3.3007,3.3016,3.2839,3.3008,3.3007,3.3006,3.3005,3.3005,3.2178,3.2236,3.23,3.2377,3.2426,3.2482,3.2542,3.2581,3.2652,3.2738,3.2752,3.2842,3.2907,3.3016,3.3059,3.313,3.3115,3.3141,3.3148,3.3154,3.3156,3.2997,3.3145,3.3145,3.3145,3.3144,3.3144,0,3.2313,3.2354,3.2425,3.2509,3.2571,3.2567,3.2634,3.2685,3.2764,3.2823,3.289,3.2987,3.3067,3.3119,3.32,3.3247,3.325,3.3268,3.3264,3.3273,3.3166,3.3141,3.3264,3.3264,3.3264,3.3264,3.3264,3.3264,3.2391,3.2488,3.251,3.2632,3.2673,3.276,3.2799,3.2851,3.2899,3.3006,3.3072,3.3106,3.3163,3.3248,3.3321,3.3335,3.3364,3.3382,3.3394,3.3293,3.328,3.3268,3.3246,3.3388,3.3388,3.3495,3.3496,3.3497]},{"header":{"parameterUnit":"m.s-1","parameterCategory":1,"la1":30.2991,"la2":30.254,"lo1":-89.0895,"lo2":-89.0444,"dy":0.0017,"dx":0.0017,"nx":28,"ny":28,"refTime":"2023-08-22T21:00:00:Z","depth":0,"parameterNumber":3,"parameterNumberName":"V-component_of_WINDS"},"data":[0,0,0,0,0,0,0,0,0,0,0,0,0,0,0,0,0,0,0,0,0,0,0,0,0,0,0,0,0,0,0,0,0,0,0,0,0,0,0,0,0,0,0,0,0,0,0,0,0,0,0,0,0,0,0,0,0,0,-0.5167,-0.5167,0,-0.5173,-0.5173,-0.5173,-0.519,-0.5191,-0.5191,-0.5192,-0.5197,-0.5196,-0.5196,0,0,0,0,0,0,0,0,0,0,0,0,0,-0.5173,-0.5172,-0.5167,-0.5167,-0.5168,-0.5173,-0.5173,-0.5173,-0.519,-0.5191,-0.5191,-0.5192,-0.5197,-0.5196,-0.5196,0,0,0,0,0,0,0,0,0,0,0,0,0,-0.5173,-0.5172,-0.5167,-0.5177,-0.5178,-0.5173,-0.5173,-0.5173,-0.519,-0.5191,-0.5191,-0.5192,-0.5197,-0.5196,-0.5196,-0.5182,0,0,-0.5195,-0.5195,0,0,0,0,0,0,0,0,-0.5173,-0.5173,-0.5175,-0.5176,-0.5177,-0.5182,-0.5177,-0.5176,-0.519,-0.5186,-0.5192,-0.5192,-0.5191,-0.5191,-0.5191,-0.5182,-0.5183,-0.5195,-0.5195,-0.5195,-0.5195,0,0,0,0,0,0,0,-0.5173,-0.5173,-0.517,-0.5175,-0.5177,-0.5181,-0.5182,-0.5177,-0.5185,-0.5186,-0.5187,-0.5188,-0.5192,-0.5191,-0.5191,-0.5183,-0.5195,-0.5195,-0.5194,-0.5194,-0.5164,-0.5163,0,0,0,0,0,0,-0.5172,-0.5173,-0.5169,-0.517,-0.5177,-0.518,-0.5181,-0.518,-0.5185,-0.5186,-0.5187,-0.5189,-0.5192,-0.5192,-0.5191,-0.5176,-0.5195,-0.5194,-0.5194,-0.5165,-0.5164,-0.5163,0,0,0,0,0,0,-0.5172,-0.5171,-0.5169,-0.5172,-0.5172,-0.518,-0.5178,-0.5179,-0.5179,-0.5186,-0.5188,-0.5185,-0.5192,-0.5192,-0.5185,-0.5176,-0.5194,-0.5194,-0.5165,-0.5164,-0.5164,-0.5144,0,0,0,0,0,0,-0.5172,-0.5171,-0.5166,-0.5171,-0.5172,-0.5162,-0.5177,-0.5179,-0.5178,-0.518,-0.5184,-0.5186,-0.5192,-0.5185,-0.5184,-0.5176,-0.5194,-0.5166,-0.5165,-0.5164,-0.5145,-0.5143,-0.514,0,0,0,0,0,-0.5172,-0.516,-0.5165,-0.5165,-0.5165,-0.5161,-0.5161,-0.517,-0.5178,-0.5172,-0.5177,-0.5186,-0.5178,-0.5184,-0.5183,-0.5175,-0.5167,-0.5165,-0.5164,-0.5147,-0.5143,-0.514,0,0,0,0,0,0,-0.5152,-0.5161,-0.5167,-0.5156,-0.5158,-0.5164,-0.5158,-0.5165,-0.5165,-0.5166,-0.5177,-0.5178,-0.5169,-0.5171,-0.5179,-0.5162,-0.5174,-0.5172,-0.5161,-0.5157,-0.5155,-0.5154,-0.5193,0,0,0,0,0,-0.5147,-0.5143,-0.5151,-0.514,-0.5141,-0.5149,-0.5148,-0.5154,-0.5157,-0.5157,-0.5162,-0.5163,-0.5161,-0.516,-0.5158,-0.5146,-0.5148,-0.514,-0.5138,-0.5136,-0.5134,-0.5128,-0.5125,-0.5159,-0.5159,-0.5159,0,0,-0.5135,-0.5139,-0.5136,-0.5137,-0.5139,-0.5135,-0.515,-0.5145,-0.5142,-0.5157,-0.515,-0.5153,-0.5156,-0.5147,-0.5143,-0.5148,-0.5125,-0.5134,-0.5132,-0.5132,-0.5127,-0.5124,-0.5121,-0.5158,-0.5158,-0.5158,0,0,-0.5112,-0.5115,-0.5106,-0.5109,-0.5112,-0.5118,-0.5116,-0.5122,-0.5124,-0.5118,-0.5129,-0.5126,-0.5122,-0.5124,-0.5125,-0.5104,-0.5112,-0.5103,-0.5089,-0.5084,-0.5081,-0.5079,-0.5071,-0.5069,-0.5102,-0.5102,-0.5102,0,-0.5097,-0.5091,-0.5101,-0.5096,-0.5096,-0.511,-0.5102,-0.5104,-0.5106,-0.5106,-0.5113,-0.5109,-0.5112,-0.5103,-0.5098,-0.5098,-0.5097,-0.5102,-0.5081,-0.5078,-0.5076,-0.5069,-0.5067,-0.5101,-0.5101,-0.5101,-0.5101,0,-0.5073,-0.5069,-0.5062,-0.5065,-0.5064,-0.5058,-0.5067,-0.5065,-0.5072,-0.5078,-0.5071,-0.5076,-0.5076,-0.5074,-0.5081,-0.5067,-0.507,-0.5079,-0.509,-0.5072,-0.5066,-0.5063,-0.5099,-0.5099,-0.51,-0.51,0,0,-0.5035,-0.5045,-0.5042,-0.5044,-0.5049,-0.5047,-0.5042,-0.5042,-0.504,-0.5042,-0.5038,-0.5035,-0.5043,-0.5044,-0.5051,-0.5046,-0.503,-0.5055,-0.5056,-0.505,-0.5015,-0.5009,-0.5005,-0.5036,-0.5035,-0.5035,-0.5015,0,-0.5013,-0.5004,-0.5014,-0.5003,-0.5,-0.5014,-0.5009,-0.5012,-0.5017,-0.5016,-0.5022,-0.5019,-0.503,-0.5031,-0.5027,-0.5033,-0.5023,-0.5034,-0.5032,-0.5032,-0.503,-0.5002,-0.4995,-0.4976,-0.5013,-0.5012,-0.5012,0,-0.4985,-0.4987,-0.4975,-0.4983,-0.4982,-0.4977,-0.4979,-0.4977,-0.4982,-0.4986,-0.4987,-0.4996,-0.4992,-0.5004,-0.4998,-0.5006,-0.5006,-0.5008,-0.5008,-0.5007,-0.502,-0.5,-0.497,-0.4967,-0.5008,-0.5009,-0.5009,0,-0.4959,-0.4958,-0.4951,-0.4953,-0.4961,-0.4958,-0.4961,-0.4966,-0.4966,-0.4967,-0.4968,-0.4969,-0.4969,-0.497,-0.4979,-0.4987,-0.4973,-0.4985,-0.4976,-0.4976,-0.4972,-0.4971,-0.494,-0.4972,-0.4972,-0.4973,-0.4973,0,-0.4933,-0.4925,-0.494,-0.4936,-0.4928,-0.494,-0.4932,-0.4937,-0.4941,-0.4939,-0.4951,-0.4948,-0.4961,-0.496,-0.4967,-0.4962,-0.4962,-0.4965,-0.4967,-0.4964,-0.4963,-0.4963,-0.4964,-0.4972,-0.4972,-0.4972,-0.4972,0,-0.4902,-0.4911,-0.4905,-0.4914,-0.4916,-0.491,-0.4918,-0.4914,-0.4921,-0.4917,-0.4917,-0.4928,-0.4927,-0.4937,-0.4938,-0.4943,-0.4934,-0.4939,-0.4933,-0.4934,-0.4924,-0.4925,-0.4891,-0.4887,-0.4922,-0.4922,-0.4922,0,-0.4884,-0.4878,-0.4887,-0.4886,-0.4889,-0.4888,-0.4888,-0.49,-0.49,-0.4905,-0.4901,-0.4902,-0.4903,-0.4901,-0.4909,-0.491,-0.4915,-0.4903,-0.4915,-0.4912,-0.4914,-0.4914,-0.4914,-0.49,-0.4899,-0.4899,-0.4899,0,-0.4851,-0.4856,-0.4856,-0.4858,-0.4858,-0.486,-0.4863,-0.4862,-0.4875,-0.4874,-0.4874,-0.4875,-0.4877,-0.4877,-0.488,-0.4884,-0.4894,-0.4895,-0.4893,-0.4889,-0.4886,-0.4887,-0.4925,-0.4896,-0.4896,-0.4896,-0.4896,-0.4896,-0.4826,-0.4822,-0.4828,-0.4828,-0.4831,-0.4834,-0.4832,-0.4839,-0.4839,-0.4841,-0.4848,-0.4847,-0.4853,-0.4858,-0.4861,-0.486,-0.4866,-0.4863,-0.4862,-0.4861,-0.4859,-0.4887,-0.4861,-0.4861,-0.4861,-0.4861,-0.4861,0,-0.4794,-0.4798,-0.4798,-0.4802,-0.4802,-0.4812,-0.4816,-0.4816,-0.4814,-0.4819,-0.482,-0.482,-0.4821,-0.483,-0.4832,-0.483,-0.4834,-0.483,-0.483,-0.4831,-0.4854,-0.4855,-0.4826,-0.4826,-0.4826,-0.4826,-0.4826,-0.4826,-0.4777,-0.4771,-0.4777,-0.4774,-0.4779,-0.4778,-0.4779,-0.4782,-0.4786,-0.4786,-0.4787,-0.4792,-0.4799,-0.4802,-0.4803,-0.4806,-0.4806,-0.48,-0.4804,-0.4825,-0.4829,-0.4832,-0.4833,-0.48,-0.48,-0.4781,-0.478,-0.478]}]]